Find Gao Fen 11-03

NORAD ID: 49492 Int'l Des: 2021-107 Owner: YWZB Country: CN operational
LEOCIRCULARRETROGRADESSO

Live Position

Loading 3D Globe...

About Gao Fen 11-03

Description loading...

Upcoming Passes

Passes for default location (London). Set your location on the main map for personalized predictions.

Altitude History

Loading altitude history...

Two-Line Element Set

1 49492U 21107A 26106.31846140 .00002436 00000-0 10413-3 0 9998
2 49492 97.2154 152.8399 0004366 271.9610 88.1127 15.23762803245218
Epoch: Apr 16, 2026 • Age: 6 hours

Current Status

Altitude 498.2 km
Velocity 7.62 km/s
Sub-Earth Point 20.63°N, 95.08°E
Launch Date Nov 20, 2021
Age 4.4 years
Type other

Technical Details

Classification Payload
Mass 3000.00 kg
Dry Mass 3000.00 kg
Total Mass 3000.00 kg
Length 2.00 m
Diameter 2.00 m
Span 8.00 m
Shape Box + 2 Pan
Manufacturer CAST/YWZB
Bus Type JB-16
Phase Status In Orbit
Owner/State YWZB/CN

Most Searched